[Date Prev][Date Next][Thread Prev][Thread Next] - [Date Index][Thread Index][Author Index]
2 Line ISS Keps 8-12
- Subject: [sarex] 2 Line ISS Keps 8-12
- From: "Dave Larsen PhD" <doc@xxxxxxxxxxx>
- Date: Thu, 12 Aug 2004 03:34:01 -0700
ISS
1 25544U 98067A 04225.28377315 .00015761 00000-0 12877-3 0 4262
2 25544 51.6331 39.4075 0005750 107.4719 256.8126 15.70756166327135
----
Via the sarex mailing list at AMSAT.ORG courtesy of AMSAT-NA.
To unsubscribe, send "unsubscribe sarex" to Majordomo@amsat.org
AMSAT Home